Wind_Speed
16 16 15 15 15 15 14 13 13 13 13 13 13 13 13 13 13 14 14 13 13 14 15 15 16 17 17 17 17 17 18 20 20 17 14 14 8 11 11 12 16 15 17
20 16 16 16 16 15 14 14 13 13 12 12 11 11 11 12 12 13 13 13 13 14 14 15 15 16 16 16 16 17 18 19 18 13 14 15 7 10 13 11 16 14 12
19 17 16 17 16 16 15 14 13 12 12 11 11 11 11 12 12 12 13 13 13 14 14 15 15 16 16 16 16 17 17 18 15 13 14 14 9 13 12 13 13 14 17
19 18 16 17 17 16 15 14 13 12 12 11 10 10 11 11 11 12 12 13 13 14 15 15 16 16 17 17 17 18 18 19 13 15 12 8 6 12 14 13 12 14 16
19 18 17 17 17 16 15 14 13 13 12 11 10 10 10 11 11 11 12 12 13 14 15 15 16 17 17 17 17 18 18 19 15 13 12 10 5 12 14 14 12 13 15
21 18 18 17 17 16 15 14 13 13 11 10 10 10 10 10 11 11 12 13 14 14 15 16 16 17 17 17 17 18 19 19 17 10 12 9 8 12 14 12 11 12 13
23 20 18 18 17 16 15 14 13 12 11 10 10 10 10 10 10 11 12 13 14 15 16 17 17 17 17 18 18 18 19 17 13 12 10 7 12 13 13 12 10 10 12
24 22 19 18 17 16 15 14 13 12 11 10 9 9 9 10 10 11 12 13 14 15 15 16 17 18 18 17 18 21 17 15 13 14 11 8 14 14 13 11 9 9 10
24 22 20 18 17 16 14 14 13 12 11 10 10 10 10 9 9 12 11 16 15 16 14 18 18 18 17 18 17 24 17 15 15 15 9 10 14 15 13 10 9 9 11
21 21 21 16 15 13 13 12 12 11 12 13 15 13 10 7 9 10 13 19 19 18 14 14 17 17 18 20 15 19 20 19 14 11 5 11 14 13 12 8 8 9 10
20 19 18 16 14 12 10 10 10 10 10 13 13 13 9 7 9 9 15 17 15 17 14 17 17 18 17 16 15 16 17 17 13 16 8 9 12 11 14 14 10 10 11
19 18 17 18 16 10 10 8 6 7 6 7 9 10 11 10 13 14 14 16 13 12 15 17 17 14 17 17 16 16 18 17 20 15 6 8 10 10 11 13 12 11 11
18 18 16 14 13 10 7 5 6 7 6 8 10 11 12 12 13 15 15 15 14 14 17 18 19 17 17 17 15 15 15 16 17 16 12 12 9 10 10 11 12 12 11
19 17 16 12 10 7 5 6 6 6 7 7 7 11 11 14 13 15 15 15 16 17 19 19 19 19 19 18 15 15 15 15 15 15 15 8 13 12 9 10 10 10 11
18 17 16 13 8 6 7 8 7 7 6 7 5 9 11 14 15 16 14 14 15 16 19 20 19 20 20 20 18 15 14 15 14 14 14 13 13 12 12 9 10 11 11
21 17 16 13 8 7 10 7 7 8 7 4 8 11 10 11 14 17 16 15 16 18 18 18 19 20 20 20 20 17 15 17 15 12 13 13 13 12 10 8 9 10 11
20 18 15 12 8 7 8 6 6 3 5 9 12 5 11 12 13 15 17 15 16 18 18 18 19 20 20 20 21 19 18 20 18 13 11 13 13 10 9 8 6 10 14
21 16 11 11 8 8 9 7 6 7 8 11 9 9 9 12 14 16 17 15 18 18 17 17 19 21 20 21 21 20 23 24 19 17 12 11 10 12 13 13 14 16 17
18 15 13 10 9 9 9 5 7 8 7 4 3 6 13 12 13 15 16 15 17 17 17 17 19 20 21 22 21 23 24 21 22 18 9 8 8 11 10 11 14 16 17
16 15 13 12 7 4 4 9 5 0 5 5 2 7 9 10 12 14 15 16 17 17 17 17 19 18 20 22 22 25 22 27 26 14 9 10 11 8 7 10 14 14 15
16 14 12 8 9 11 7 4 6 6 12 7 7 6 4 7 11 14 16 17 17 17 18 16 18 20 21 22 23 23 24 22 21 14 13 13 12 9 9 13 14 11 12
16 12 14 12 12 11 8 7 6 8 6 5 5 7 10 11 13 13 15 16 16 17 18 17 18 18 18 20 21 17 7 22 21 28 17 17 9 11 13 13 15 13 13
15 17 15 12 10 10 9 10 14 14 10 7 12 11 15 12 12 12 12 14 16 16 17 17 19 18 20 16 18 14 4 3 20 11 24 21 18 15 16 16 15 15 13
17 15 11 10 10 11 11 11 13 13 13 14 13 14 13 13 11 12 10 14 16 17 17 17 18 19 20 15 15 11 15 17 4 7 13 21 17 20 20 19 19 17 17
12 12 9 9 10 11 11 14 14 14 14 13 13 15 14 15 13 14 12 17 17 18 17 18 19 19 17 13 13 14 14 17 19 11 8 13 21 20 23 22 21 21 20
14 10 9 8 9 9 10 12 13 13 11 14 15 16 18 15 15 14 18 17 19 18 18 19 19 18 17 12 14 15 15 12 14 13 8 15 16 21 21 20 22 21 20
Wind_Direction
121 125 123 115 110 104 99 94 86 78 73 68 63 59 55 53 50 45 42 40 34 31 24 21 17 13 10 7 4 3 358 353 351 354 7 346 338 33 26 21 17 13 10
128 131 126 118 112 109 104 98 92 84 77 73 69 62 58 54 49 45 40 36 33 28 23 19 15 10 8 5 3 359 356 352 353 16 14 14 86 33 37 19 18 5 359
129 134 127 122 119 114 109 104 98 90 83 77 71 63 57 53 46 43 39 35 31 26 20 16 12 8 5 3 359 355 352 348 352 12 12 17 38 37 29 23 8 5 5
134 135 131 126 120 116 111 107 100 92 86 80 73 66 59 51 48 42 37 34 29 23 19 13 8 5 2 360 356 353 349 347 357 7 16 352 356 30 27 21 10 6 6
134 134 132 126 120 117 113 107 100 92 87 81 75 68 57 53 50 42 38 33 27 21 17 11 5 1 358 356 354 352 349 346 347 6 4 357 6 29 21 14 4 3 4
131 131 130 124 121 116 110 103 96 92 88 83 78 70 61 54 48 41 36 31 25 18 13 8 3 359 357 354 353 352 349 347 350 17 359 32 40 24 17 5 357 359 3
130 134 130 125 120 115 109 103 98 95 91 85 80 69 61 52 49 43 34 26 20 14 10 5 359 356 353 353 351 349 348 352 355 1 4 12 38 24 13 3 356 6 2
134 138 131 126 121 116 111 104 101 97 93 88 79 72 64 56 49 39 33 23 15 9 5 0 356 352 350 350 353 354 354 0 2 357 348 51 31 20 7 356 355 4 3
140 140 136 130 123 116 111 107 103 98 93 80 68 68 57 49 47 34 29 16 13 6 1 1 360 352 351 347 340 355 354 352 344 349 337 18 25 15 1 353 0 1 358
143 145 142 134 126 116 112 108 94 77 71 65 53 39 30 41 14 356 4 5 9 8 1 349 348 351 347 343 332 352 340 345 350 333 9 30 26 15 6 356 359 358 356
147 152 150 144 138 127 110 106 79 56 50 39 19 18 32 6 360 351 335 347 355 3 350 348 336 346 344 349 350 341 343 350 335 331 341 24 22 12 2 17 10 10 13
153 158 158 154 146 142 130 98 100 81 76 55 31 23 11 359 358 349 347 340 346 333 349 346 343 343 347 342 342 344 343 338 329 337 335 12 19 12 347 350 355 1 358
158 161 150 146 143 147 122 156 115 79 55 55 28 25 5 357 1 353 350 344 345 351 351 346 343 350 339 334 331 338 335 334 327 331 337 329 4 9 352 341 335 340 332
158 152 141 144 144 119 127 100 86 78 57 33 27 22 12 8 352 349 347 340 349 354 348 347 339 343 334 330 329 330 330 328 321 320 315 307 327 334 347 329 333 327 321
148 138 134 136 136 126 84 92 70 70 45 40 41 13 17 5 355 345 340 345 350 351 346 339 337 340 333 331 325 325 328 317 317 310 314 313 309 321 332 337 323 320 322
129 128 126 127 128 117 95 90 84 61 53 60 356 4 20 359 356 342 339 349 352 346 336 334 338 335 334 331 324 326 326 315 298 293 299 307 293 308 312 343 331 320 316
124 118 116 112 119 112 105 89 89 75 14 14 23 30 12 355 358 343 342 353 347 342 334 341 343 337 335 333 323 332 326 315 307 289 282 296 300 302 311 330 309 324 320
112 112 121 123 114 90 89 78 72 29 39 17 15 357 1 355 355 343 343 352 345 338 338 346 345 339 335 330 327 330 326 311 311 306 265 268 285 299 304 306 314 313 316
109 119 106 108 99 94 83 62 64 58 40 344 0 9 3 358 353 343 338 351 344 344 346 352 340 337 335 331 333 329 316 318 312 299 317 288 287 291 290 304 302 313 310
109 104 105 91 96 102 96 106 84 8 349 350 37 15 1 348 345 347 348 351 350 348 345 340 341 339 337 332 336 317 325 321 307 282 286 285 280 282 294 309 312 301 301
95 96 94 92 55 92 91 44 344 359 346 341 349 353 337 350 352 352 355 350 351 341 336 341 342 346 338 340 334 337 328 320 21 23 341 309 317 309 320 314 300 299 316
93 95 82 67 53 48 40 27 5 333 328 303 333 24 27 358 357 352 352 346 342 335 334 346 342 341 334 342 344 338 336 325 346 344 355 353 359 340 312 312 312 305 301
89 81 70 67 56 47 41 14 3 354 325 344 360 357 354 345 346 343 343 342 333 333 331 344 336 343 328 337 343 338 335 338 328 322 331 339 329 328 319 319 316 305 298
79 79 77 65 55 42 36 26 25 357 8 8 9 349 338 344 343 340 341 342 331 331 332 338 333 333 331 338 337 335 321 320 312 311 319 316 320 331 321 320 313 306 301
99 87 75 66 53 41 33 34 22 17 4 357 358 342 354 346 352 348 354 344 334 326 330 332 330 332 334 336 336 326 317 299 286 287 299 308 309 311 313 311 307 304 293
90 83 72 59 47 35 31 30 23 10 356 349 2 355 355 350 347 347 350 335 332 325 325 325 328 329 333 330 326 313 298 294 297 296 292 298 302 303 297 298 301 298 300
Height
827 829 831 832 832 834 835 837 838 839 839 840 840 840 841 839 838 838 837 836 836 834 833 832 830 829 827 825 823 821 819 816 813 811 809 810 810 810 809 808 807 806 805
825 829 831 831 833 834 836 838 839 840 841 841 841 842 842 841 840 839 839 838 836 835 834 832 831 829 827 826 824 822 820 817 814 811 809 809 811 811 809 809 809 808 806
825 829 831 832 833 835 837 839 840 840 841 842 843 843 843 842 841 841 840 839 838 836 835 833 831 829 827 825 823 821 820 818 814 812 811 810 811 810 810 809 810 809 807
826 829 831 833 834 836 838 839 840 841 842 843 844 844 844 843 843 842 841 840 838 837 835 834 832 830 827 825 822 820 818 816 813 811 811 812 811 810 810 810 810 809 807
827 830 832 834 835 837 838 840 841 842 843 844 845 846 845 845 844 843 842 841 839 837 836 834 832 830 827 825 822 820 817 815 812 811 813 812 810 810 810 810 810 809 808
826 830 833 835 837 838 840 841 842 843 844 845 846 847 846 846 845 844 843 841 839 838 836 834 832 830 828 825 822 819 816 814 812 811 813 809 810 810 809 810 810 809 808
825 831 834 836 838 840 841 842 843 844 845 846 847 847 846 846 845 844 843 842 840 838 835 834 832 830 828 825 823 819 816 814 812 811 813 809 810 810 810 810 810 809 808
826 832 835 838 839 840 841 843 844 845 846 847 846 847 846 846 845 844 843 841 840 838 836 834 831 829 827 825 823 820 817 815 813 811 813 810 810 810 810 810 809 809 808
828 832 835 838 840 841 843 844 845 846 847 847 847 847 847 847 845 844 844 842 840 838 837 836 833 829 827 825 824 821 818 816 815 813 813 810 810 810 811 810 809 809 808
829 834 837 839 842 843 845 846 847 848 848 849 849 849 848 848 848 844 844 842 840 838 836 836 834 831 828 825 824 822 819 816 815 813 810 811 811 811 810 810 809 808 808
831 835 838 841 843 845 846 848 848 849 850 850 851 852 851 851 849 848 844 841 840 837 836 835 834 832 829 827 825 823 820 817 815 814 810 810 810 811 811 810 809 808 807
832 835 838 841 844 846 848 849 851 852 853 854 854 854 853 852 851 849 847 843 841 839 838 837 835 832 830 828 825 823 820 819 816 814 811 810 810 811 812 810 809 808 807
830 835 839 842 845 847 849 850 852 854 854 854 854 854 854 853 851 850 848 847 844 840 838 837 835 831 830 828 824 821 820 818 816 815 811 810 809 809 811 811 809 807 807
828 834 839 844 847 848 850 851 853 854 855 855 855 854 852 852 851 849 848 847 844 841 839 837 834 832 829 827 825 820 818 817 816 814 812 810 809 809 809 810 809 808 807
829 835 840 845 849 851 852 853 855 856 856 857 855 854 853 852 852 850 847 846 843 840 839 838 835 831 829 826 825 819 816 816 814 813 811 809 809 807 807 807 807 807 806
830 837 842 848 852 853 853 854 856 857 857 856 856 855 855 854 851 852 848 846 844 840 840 838 835 831 828 825 824 819 815 814 812 811 810 809 807 806 805 805 806 805 805
833 839 846 851 854 854 855 856 856 857 858 858 856 857 856 857 853 853 849 844 844 842 839 837 834 832 827 825 822 818 814 812 810 808 807 807 807 805 804 804 803 804 803
835 843 849 852 856 857 857 856 856 858 858 857 857 857 854 855 854 853 848 845 844 842 839 836 835 832 827 824 820 817 814 810 807 805 803 804 804 804 804 804 802 801 800
841 847 852 856 858 859 858 858 858 858 857 856 855 856 857 855 855 853 850 846 845 841 839 837 837 832 828 823 819 816 812 808 805 802 801 802 801 802 802 802 801 799 798
846 850 855 858 860 859 858 858 858 857 856 855 855 854 856 857 856 853 849 847 844 842 840 837 835 832 828 823 819 814 809 805 802 800 800 800 799 799 799 799 798 798 796
850 855 858 861 861 860 859 859 859 858 856 857 856 854 856 856 855 852 849 847 845 843 840 837 834 831 828 824 819 813 807 803 800 797 799 799 797 796 796 797 796 795 793
855 858 861 862 863 862 862 862 860 859 858 857 857 856 855 854 853 851 849 848 846 843 840 837 834 830 828 825 822 816 809 800 799 801 799 797 796 796 796 795 794 792 791
859 861 864 867 867 866 865 863 861 858 858 858 857 856 855 854 852 851 849 848 846 843 840 837 834 831 827 825 824 823 818 813 810 800 800 798 797 796 795 793 792 790 789
864 866 869 870 870 868 866 864 863 861 860 859 857 856 855 853 851 850 848 847 845 842 839 836 833 830 827 824 823 823 821 819 816 803 799 798 797 795 793 791 790 788 787
867 870 872 872 871 870 868 866 865 864 863 861 859 858 855 853 851 850 847 846 843 840 837 835 831 829 826 824 823 821 820 817 814 810 802 796 796 794 792 789 787 785 784
869 872 874 874 873 871 869 868 867 866 864 862 860 858 856 853 851 849 846 845 842 839 835 832 830 827 825 823 822 821 818 816 811 808 804 799 794 791 790 787 784 782 780